| time (UTC) | temp C | wind direction | speed KPH | gust KPH | rain 1hr cm | rain 24hr cm | rain mn cm | humidity % | barometer mb |
| 20260507051545 | 12 | 144 | 0.0 | 4.8 | 0.00 | 0.00 | 0.00 | 85 | 1018.6 |
| 20260507050044 | 13 | 306 | 0.0 | 3.2 | 0.00 | 0.00 | 0.00 | 84 | 1018.5 |
| 20260507044544 | 13 | 302 | 0.0 | 3.2 | 0.00 | 0.00 | 0.00 | 84 | 1018.5 |
| 20260507043043 | 13 | 98 | 0.0 | 1.6 | 0.00 | 0.00 | 0.00 | 83 | 1018.3 |
| 20260507041544 | 13 | 42 | 0.0 | 4.8 | 0.00 | 0.00 | 0.00 | 82 | 1018.1 |
| 20260507040043 | 14 | 313 | 1.6 | 4.8 | 0.00 | 0.00 | 0.00 | 81 | 1017.9 |
| 20260507034541 | 15 | 97 | 3.2 | 6.4 | 0.00 | 0.00 | 0.00 | 79 | 1017.8 |
| 20260507033041 | 15 | 293 | 0.0 | 4.8 | 0.00 | 0.00 | 0.00 | 77 | 1017.6 |
| 20260507031542 | 16 | 61 | 1.6 | 6.4 | 0.00 | 0.00 | 0.00 | 75 | 1017.5 |
| 20260507030043 | 17 | 65 | 3.2 | 6.4 | 0.00 | 0.00 | 0.00 | 74 | 1017.2 |
| 20260507024540 | 17 | 337 | 0.0 | 8.0 | 0.00 | 0.00 | 0.00 | 73 | 1017.0 |
| 20260507023046 | 18 | 189 | 0.0 | 1.6 | 0.00 | 0.00 | 0.00 | 70 | 1016.9 |
| 20260507021545 | 19 | 355 | 1.6 | 8.0 | 0.00 | 0.00 | 0.00 | 68 | 1016.8 |
| 20260507020058 | 20 | 323 | 1.6 | 4.8 | 0.00 | 0.00 | 0.00 | 66 | 1016.6 |
| 20260507014540 | 21 | 32 | 4.8 | 8.0 | 0.00 | 0.00 | 0.00 | 64 | 1016.6 |
| 20260507013048 | 22 | 80 | 0.0 | 4.8 | 0.00 | 0.00 | 0.00 | 62 | 1016.6 |
| 20260507011537 | 22 | 355 | 0.0 | 4.8 | 0.00 | 0.00 | 0.00 | 62 | 1016.6 |
| 20260507010037 | 21 | 161 | 1.6 | 6.4 | 0.00 | 0.00 | 0.00 | 62 | 1016.6 |
| 20260507004540 | 21 | 196 | 0.0 | 6.4 | 0.00 | 0.00 | 0.00 | 62 | 1016.5 |
| 20260507003042 | 21 | 204 | 1.6 | 6.4 | 0.00 | 0.00 | 0.00 | 61 | 1016.4 |
| 20260507001542 | 22 | 120 | 0.0 | 4.8 | 0.00 | 0.00 | 0.00 | 62 | 1016.5 |
| 20260507000035 | 22 | 255 | 1.6 | 8.0 | 0.00 | 0.00 | 0.00 | 61 | 1016.4 |
| 20260506234537 | 22 | 197 | 1.6 | 9.7 | 0.00 | 0.00 | 0.00 | 61 | 1016.4 |
| 20260506233031 | 22 | 312 | 0.0 | 6.4 | 0.00 | 0.00 | 0.00 | 60 | 1016.5 |
| 20260506231531 | 22 | 59 | 1.6 | 11.3 | 0.00 | 0.00 | 0.00 | 59 | 1016.6 |
| 20260506230029 | 22 | 9 | 1.6 | 11.3 | 0.00 | 0.00 | 0.00 | 59 | 1016.9 |
| 20260506224530 | 22 | 209 | 3.2 | 6.4 | 0.00 | 0.00 | 0.00 | 59 | 1017.0 |
| 20260506223029 | 22 | 279 | 4.8 | 14.5 | 0.00 | 0.00 | 0.00 | 58 | 1017.1 |
| 20260506221522 | 23 | 222 | 1.6 | 8.0 | 0.00 | 0.00 | 0.00 | 55 | 1017.3 |
| 20260506220022 | 23 | 198 | 0.0 | 12.9 | 0.00 | 0.00 | 0.00 | 57 | 1017.4 |
| 20260506214531 | 22 | 286 | 3.2 | 11.3 | 0.00 | 0.00 | 0.00 | 58 | 1017.6 |
| 20260506213019 | 23 | 263 | 3.2 | 9.7 | 0.00 | 0.00 | 0.00 | 58 | 1017.9 |
| 20260506211515 | 23 | 5 | 1.6 | 11.3 | 0.00 | 0.00 | 0.00 | 58 | 1018.0 |
| 20260506210019 | 22 | 186 | 3.2 | 12.9 | 0.00 | 0.00 | 0.00 | 59 | 1018.0 |
| 20260506204514 | 22 | 193 | 1.6 | 12.9 | 0.00 | 0.00 | 0.00 | 59 | 1018.1 |
| 20260506203012 | 23 | 293 | 3.2 | 9.7 | 0.00 | 0.00 | 0.00 | 56 | 1018.2 |
| 20260506201513 | 22 | 327 | 0.0 | 16.1 | 0.00 | 0.00 | 0.00 | 60 | 1018.4 |
| 20260506200011 | 22 | 148 | 4.8 | 11.3 | 0.00 | 0.00 | 0.00 | 56 | 1018.5 |
| 20260506194508 | 22 | 265 | 3.2 | 9.7 | 0.00 | 0.00 | 0.00 | 60 | 1018.6 |
| 20260506193006 | 21 | 199 | 3.2 | 9.7 | 0.00 | 0.00 | 0.00 | 60 | 1018.7 |
| 20260506191504 | 21 | 333 | 0.0 | 6.4 | 0.00 | 0.00 | 0.00 | 58 | 1018.9 |
| 20260506190006 | 21 | 39 | 8.0 | 12.9 | 0.00 | 0.00 | 0.00 | 57 | 1019.0 |
| 20260506184502 | 21 | 74 | 3.2 | 11.3 | 0.00 | 0.00 | 0.00 | 57 | 1019.0 |
| 20260506183105 | 20 | 64 | 1.6 | 11.3 | 0.00 | 0.00 | 0.00 | 60 | 1019.2 |
| 20260506181622 | 20 | 122 | 1.6 | 6.4 | 0.00 | 0.00 | 0.00 | 63 | 1019.1 |
| 20260506180055 | 19 | 64 | 1.6 | 8.0 | 0.00 | 0.00 | 0.00 | 63 | 1019.3 |
| 20260506174552 | 20 | 49 | 3.2 | 6.4 | 0.00 | 0.00 | 0.00 | 63 | 1019.3 |
| 20260506173058 | 19 | 306 | 1.6 | 8.0 | 0.00 | 0.00 | 0.00 | 64 | 1019.3 |
| 20260506171546 | 17 | 306 | 1.6 | 4.8 | 0.00 | 0.00 | 0.00 | 69 | 1019.4 |
| 20260506170048 | 17 | 292 | 3.2 | 8.0 | 0.00 | 0.00 | 0.00 | 70 | 1019.5 |
| 20260506164547 | 17 | 78 | 0.0 | 11.3 | 0.00 | 0.00 | 0.00 | 68 | 1019.5 |
| 20260506163043 | 17 | 287 | 1.6 | 6.4 | 0.00 | 0.00 | 0.00 | 70 | 1019.6 |
| 20260506161537 | 17 | 250 | 0.0 | 8.0 | 0.00 | 0.00 | 0.00 | 73 | 1019.6 |
| 20260506160034 | 16 | 32 | 0.0 | 6.4 | 0.00 | 0.00 | 0.00 | 74 | 1019.7 |
| 20260506154529 | 15 | 49 | 0.0 | 9.7 | 0.00 | 0.00 | 0.00 | 76 | 1019.7 |
| 20260506153024 | 15 | 260 | 0.0 | 3.2 | 0.00 | 0.00 | 0.00 | 79 | 1019.8 |
| 20260506151521 | 14 | 90 | 0.0 | 4.8 | 0.00 | 0.00 | 0.00 | 83 | 1019.7 |
| 20260506150016 | 13 | 93 | 0.0 | 1.6 | 0.00 | 0.00 | 0.00 | 86 | 1019.8 |
| 20260506144515 | 12 | 71 | 0.0 | 1.6 | 0.00 | 0.00 | 0.00 | 88 | 1019.9 |
| 20260506143007 | 12 | 274 | 0.0 | 1.6 | 0.00 | 0.00 | 0.00 | 92 | 1019.9 |
| 20260506141504 | 11 | 274 | 0.0 | 0.0 | 0.00 | 0.00 | 0.00 | 93 | 1019.8 |
| 20260506140005 | 10 | 274 | 0.0 | 0.0 | 0.00 | 0.00 | 0.00 | 93 | 1019.7 |
| 20260506134558 | 10 | 274 | 0.0 | 1.6 | 0.00 | 0.00 | 0.00 | 93 | 1019.5 |
| 20260506133055 | 10 | 274 | 0.0 | 0.0 | 0.00 | 0.00 | 0.00 | 93 | 1019.3 |
| 20260506131555 | 10 | 274 | 0.0 | 0.0 | 0.00 | 0.00 | 0.00 | 93 | 1019.2 |
| 20260506130051 | 10 | 274 | 0.0 | 0.0 | 0.00 | 0.00 | 0.00 | 93 | 1019.1 |
| 20260506124551 | 10 | 274 | 0.0 | 0.0 | 0.00 | 0.00 | 0.00 | 93 | 1019.0 |
| 20260506123050 | 10 | 274 | 0.0 | 0.0 | 0.00 | 0.00 | 0.00 | 93 | 1018.9 |
| 20260506121548 | 10 | 274 | 0.0 | 0.0 | 0.00 | 0.00 | 0.00 | 93 | 1018.8 |
| 20260506120047 | 10 | 274 | 0.0 | 0.0 | 0.00 | 0.00 | 0.00 | 93 | 1018.7 |
| 20260506114547 | 10 | 274 | 0.0 | 0.0 | 0.00 | 0.00 | 0.00 | 93 | 1018.6 |
| 20260506113046 | 10 | 274 | 0.0 | 1.6 | 0.00 | 0.00 | 0.00 | 93 | 1018.7 |
| 20260506111547 | 10 | 274 | 0.0 | 0.0 | 0.00 | 0.00 | 0.00 | 93 | 1018.7 |
| 20260506110044 | 10 | 274 | 0.0 | 0.0 | 0.00 | 0.00 | 0.00 | 93 | 1018.5 |
| 20260506104544 | 10 | 274 | 0.0 | 0.0 | 0.00 | 0.00 | 0.00 | 93 | 1018.5 |
| 20260506103052 | 10 | 274 | 0.0 | 0.0 | 0.00 | 0.00 | 0.00 | 93 | 1018.4 |
| 20260506101543 | 10 | 274 | 0.0 | 0.0 | 0.00 | 0.00 | 0.00 | 93 | 1018.5 |
| 20260506100043 | 10 | 274 | 0.0 | 0.0 | 0.00 | 0.00 | 0.00 | 93 | 1018.5 |
| 20260506094542 | 9 | 274 | 0.0 | 0.0 | 0.00 | 0.00 | 0.00 | 93 | 1018.5 |
| 20260506093041 | 9 | 274 | 0.0 | 0.0 | 0.00 | 0.00 | 0.00 | 93 | 1018.6 |
| 20260506091546 | 9 | 274 | 0.0 | 0.0 | 0.00 | 0.00 | 0.00 | 92 | 1018.5 |
| 20260506090037 | 9 | 274 | 0.0 | 0.0 | 0.00 | 0.00 | 0.00 | 92 | 1018.4 |
| 20260506084542 | 10 | 274 | 0.0 | 1.6 | 0.00 | 0.00 | 0.00 | 92 | 1018.3 |
| 20260506083034 | 10 | 274 | 0.0 | 1.6 | 0.00 | 0.00 | 0.00 | 91 | 1018.3 |
| 20260506081532 | 10 | 274 | 0.0 | 0.0 | 0.00 | 0.00 | 0.00 | 91 | 1018.3 |
| 20260506073026 | 11 | 274 | 0.0 | 1.6 | 0.00 | 0.00 | 0.00 | 90 | 1017.9 |
| 20260506071525 | 11 | 274 | 0.0 | 0.0 | 0.00 | 0.00 | 0.00 | 90 | 1018.1 |
| 20260506061518 | 12 | 274 | 0.0 | 0.0 | 0.00 | 0.00 | 0.00 | 89 | 1017.7 |